Time,TemperatureF,DewpointF,PressureIn,WindDirection,WindDirectionDegrees,WindSpeedMPH,WindSpeedGustMPH,Humidity,HourlyPrecipIn,Conditions,Clouds,dailyrainin,SoftwareType,DateUTC
2013-06-13 00:01:00,50.4,47.8,29.93,NNW,345,0.0,0.0,91,0.00,,OVC032,0.00,VWS V14.01,2013-06-13 04:01:00,
2013-06-13 00:06:00,50.5,48.0,29.93,NNW,345,0.0,0.0,91,0.00,,OVC032,0.00,VWS V14.01,2013-06-13 04:06:00,
2013-06-13 00:11:00,50.5,48.0,29.93,NNW,345,0.0,0.0,91,0.00,,OVC032,0.00,VWS V14.01,2013-06-13 04:11:00,
2013-06-13 00:16:00,50.4,47.8,29.93,NNW,345,0.0,0.0,91,0.00,,OVC032,0.00,VWS V14.01,2013-06-13 04:16:00,
2013-06-13 00:21:00,50.2,47.7,29.93,NNW,345,0.0,0.0,91,0.00,,OVC032,0.00,VWS V14.01,2013-06-13 04:21:00,
2013-06-13 00:26:00,50.0,47.5,29.93,NNW,345,0.0,0.0,91,0.00,,OVC032,0.00,VWS V14.01,2013-06-13 04:26:00,
2013-06-13 00:31:00,50.0,47.8,29.93,NNW,345,0.0,0.0,92,0.00,,OVC032,0.00,VWS V14.01,2013-06-13 04:31:00,
2013-06-13 00:36:00,49.8,47.6,29.93,NNW,345,0.0,0.0,92,0.00,,OVC032,0.00,VWS V14.01,2013-06-13 04:36:00,
2013-06-13 00:41:00,49.6,47.4,29.90,NNW,345,0.0,0.0,92,0.00,,BKN043,0.00,VWS V14.01,2013-06-13 04:41:00,
2013-06-13 00:46:00,49.5,47.2,29.90,NNW,345,0.0,0.0,92,0.00,,BKN043,0.00,VWS V14.01,2013-06-13 04:46:00,
2013-06-13 00:51:00,49.3,47.1,29.90,NNW,345,0.0,0.0,92,0.00,,BKN043,0.00,VWS V14.01,2013-06-13 04:51:00,
2013-06-13 00:56:00,49.1,47.2,29.90,NNW,345,0.0,0.0,93,0.00,,BKN043,0.00,VWS V14.01,2013-06-13 04:56:00,
2013-06-13 01:02:00,49.1,47.2,29.90,NNW,345,0.0,0.0,93,0.00,,BKN043,0.00,VWS V14.01,2013-06-13 05:02:00,
2013-06-13 01:07:00,48.9,47.0,29.90,NNW,345,0.0,0.0,93,0.00,,BKN043,0.00,VWS V14.01,2013-06-13 05:07:00,
2013-06-13 01:12:00,48.7,46.8,29.90,NNW,345,0.0,0.0,93,0.00,,BKN043,0.00,VWS V14.01,2013-06-13 05:12:00,
2013-06-13 01:17:00,48.7,46.8,29.90,NNW,345,0.0,0.0,93,0.00,,BKN043,0.00,VWS V14.01,2013-06-13 05:17:00,
2013-06-13 01:22:00,48.6,46.6,29.90,NNW,345,0.0,0.0,93,0.00,,BKN043,0.00,VWS V14.01,2013-06-13 05:22:00,
2013-06-13 01:27:00,48.6,46.6,29.90,NNW,345,0.0,0.0,93,0.00,,BKN043,0.00,VWS V14.01,2013-06-13 05:27:00,
2013-06-13 01:32:00,48.4,46.5,29.90,NNW,345,0.0,0.0,93,0.00,,BKN043,0.00,VWS V14.01,2013-06-13 05:32:00,
2013-06-13 01:37:00,48.4,46.7,29.90,NNW,345,0.0,0.0,94,0.00,,BKN043,0.00,VWS V14.01,2013-06-13 05:37:00,
2013-06-13 01:42:00,48.2,46.6,29.90,NNW,345,0.0,0.0,94,0.00,,OVC120,0.00,VWS V14.01,2013-06-13 05:42:00,
2013-06-13 01:47:00,48.2,46.6,29.90,NNW,345,0.0,0.0,94,0.00,,OVC120,0.00,VWS V14.01,2013-06-13 05:47:00,
2013-06-13 01:52:00,48.2,46.6,29.90,NNW,345,0.0,0.0,94,0.00,,OVC120,0.00,VWS V14.01,2013-06-13 05:52:00,
2013-06-13 01:57:00,48.4,46.7,29.90,NNW,345,0.0,0.0,94,0.00,,OVC120,0.00,VWS V14.01,2013-06-13 05:57:00,
2013-06-13 02:02:00,48.6,46.9,29.90,NNW,345,0.0,0.0,94,0.00,,OVC120,0.00,VWS V14.01,2013-06-13 06:02:00,
2013-06-13 02:07:00,48.7,47.1,29.90,NNW,345,0.0,0.0,94,0.00,,OVC120,0.00,VWS V14.01,2013-06-13 06:07:00,
2013-06-13 02:12:00,48.7,47.1,29.90,NNW,345,0.0,0.0,94,0.00,,OVC120,0.00,VWS V14.01,2013-06-13 06:12:00,
2013-06-13 02:17:00,48.9,47.5,29.90,NNW,345,0.0,0.0,95,0.00,,OVC120,0.00,VWS V14.01,2013-06-13 06:17:00,
2013-06-13 02:22:00,48.9,47.5,29.90,NNW,345,0.0,0.0,95,0.00,,OVC120,0.00,VWS V14.01,2013-06-13 06:22:00,
2013-06-13 02:27:00,49.1,47.7,29.87,NNW,345,0.0,0.0,95,0.00,,OVC120,0.00,VWS V14.01,2013-06-13 06:27:00,
2013-06-13 02:32:00,49.1,47.7,29.87,NNW,345,0.0,0.0,95,0.00,,OVC120,0.00,VWS V14.01,2013-06-13 06:32:00,
2013-06-13 02:37:00,49.1,47.7,29.87,NNW,345,0.0,0.0,95,0.00,,OVC120,0.00,VWS V14.01,2013-06-13 06:37:00,
2013-06-13 02:42:00,49.3,47.9,29.87,NNW,345,0.0,0.0,95,0.00,,,0.00,VWS V14.01,2013-06-13 06:42:00,
2013-06-13 02:47:00,49.3,47.9,29.87,NNW,345,0.0,0.0,95,0.00,,,0.00,VWS V14.01,2013-06-13 06:47:00,
2013-06-13 02:52:00,49.3,47.9,29.87,NNW,345,0.0,0.0,95,0.00,,,0.00,VWS V14.01,2013-06-13 06:52:00,
2013-06-13 02:57:00,49.3,47.9,29.87,NNW,345,0.0,0.0,95,0.00,,,0.00,VWS V14.01,2013-06-13 06:57:00,
2013-06-13 03:02:00,49.3,47.9,29.87,NNW,345,0.0,0.0,95,0.00,,,0.00,VWS V14.01,2013-06-13 07:02:00,
2013-06-13 03:07:00,49.3,47.9,29.87,NNW,345,0.0,0.0,95,0.00,,,0.00,VWS V14.01,2013-06-13 07:07:00,
2013-06-13 03:12:00,49.3,47.9,29.87,NNW,345,0.0,0.0,95,0.00,,,0.00,VWS V14.01,2013-06-13 07:12:00,
2013-06-13 03:17:00,49.3,47.9,29.87,NNW,345,0.0,0.0,95,0.00,,,0.00,VWS V14.01,2013-06-13 07:17:00,
2013-06-13 03:22:00,49.3,47.9,29.87,NNW,345,0.0,0.0,95,0.00,,,0.00,VWS V14.01,2013-06-13 07:22:00,
2013-06-13 03:27:00,49.1,47.7,29.87,NNW,345,0.0,0.0,95,0.00,,,0.00,VWS V14.01,2013-06-13 07:27:00,
2013-06-13 03:32:00,49.1,48.0,29.87,NNW,345,0.0,0.0,96,0.00,,,0.00,VWS V14.01,2013-06-13 07:32:00,
2013-06-13 03:37:00,49.3,48.2,29.87,NNW,345,0.0,0.0,96,0.00,,,0.00,VWS V14.01,2013-06-13 07:37:00,
2013-06-13 03:42:00,49.3,48.2,29.87,NNW,345,0.0,0.0,96,0.00,,,0.00,VWS V14.01,2013-06-13 07:42:00,
2013-06-13 03:48:00,49.1,48.0,29.87,NNW,345,0.0,0.0,96,0.00,,,0.00,VWS V14.01,2013-06-13 07:48:00,
2013-06-13 03:53:00,49.1,48.0,29.87,NNW,345,0.0,0.0,96,0.00,,,0.00,VWS V14.01,2013-06-13 07:53:00,
2013-06-13 03:58:00,48.7,47.7,29.87,NNW,345,0.0,0.0,96,0.00,,,0.00,VWS V14.01,2013-06-13 07:58:00,
2013-06-13 04:03:00,48.7,47.7,29.87,NNW,345,0.0,0.0,96,0.00,,,0.00,VWS V14.01,2013-06-13 08:03:00,
2013-06-13 04:08:00,48.6,47.5,29.87,NNW,345,0.0,0.0,96,0.00,,,0.00,VWS V14.01,2013-06-13 08:08:00,
2013-06-13 04:13:00,48.4,47.3,29.87,NNW,345,0.0,0.0,96,0.00,,,0.00,VWS V14.01,2013-06-13 08:13:00,
2013-06-13 04:18:00,48.4,47.3,29.87,NNW,345,0.0,0.0,96,0.00,,,0.00,VWS V14.01,2013-06-13 08:18:00,
2013-06-13 04:23:00,48.4,47.3,29.87,NNW,345,0.0,0.0,96,0.00,,,0.00,VWS V14.01,2013-06-13 08:23:00,
2013-06-13 04:28:00,48.4,47.3,29.87,NNW,345,0.0,0.0,96,0.00,,,0.00,VWS V14.01,2013-06-13 08:28:00,
2013-06-13 04:33:00,48.4,47.3,29.87,NNW,345,0.0,0.0,96,0.00,,,0.00,VWS V14.01,2013-06-13 08:33:00,
2013-06-13 04:38:00,48.4,47.3,29.87,NNW,345,0.0,0.0,96,0.00,,,0.00,VWS V14.01,2013-06-13 08:38:00,
2013-06-13 04:43:00,48.4,47.3,29.87,NNW,345,0.0,0.0,96,0.00,,,0.00,VWS V14.01,2013-06-13 08:43:00,
2013-06-13 04:48:00,48.4,47.3,29.87,NNW,345,0.0,0.0,96,0.00,,,0.00,VWS V14.01,2013-06-13 08:48:00,
2013-06-13 04:53:00,48.4,47.3,29.87,NNW,345,0.0,0.0,96,0.00,,,0.00,VWS V14.01,2013-06-13 08:53:00,
2013-06-13 04:58:00,48.4,47.3,29.84,NNW,345,0.0,0.0,96,0.00,,,0.00,VWS V14.01,2013-06-13 08:58:00,
2013-06-13 05:03:00,48.6,47.5,29.84,NNW,345,0.0,0.0,96,0.00,,,0.00,VWS V14.01,2013-06-13 09:03:00,
2013-06-13 05:08:00,48.6,47.5,29.84,NNW,345,0.0,0.0,96,0.00,,,0.00,VWS V14.01,2013-06-13 09:08:00,
2013-06-13 05:13:00,48.7,47.9,29.84,NNW,345,0.0,0.0,97,0.00,,,0.00,VWS V14.01,2013-06-13 09:13:00,
2013-06-13 05:18:00,48.7,47.9,29.84,NNW,345,0.0,0.0,97,0.00,,,0.00,VWS V14.01,2013-06-13 09:18:00,
2013-06-13 05:23:00,48.7,47.9,29.84,NNW,345,0.0,0.0,97,0.00,,,0.00,VWS V14.01,2013-06-13 09:23:00,
2013-06-13 05:28:00,48.9,48.1,29.84,NNW,345,0.0,0.0,97,0.00,,,0.00,VWS V14.01,2013-06-13 09:28:00,
2013-06-13 05:33:00,49.1,48.3,29.84,NNW,345,0.0,0.0,97,0.00,,,0.00,VWS V14.01,2013-06-13 09:33:00,
2013-06-13 05:38:00,49.1,48.3,29.84,NNW,345,0.0,0.0,97,0.00,,,0.00,VWS V14.01,2013-06-13 09:38:00,
2013-06-13 05:43:00,49.3,48.5,29.84,NNW,345,0.0,0.0,97,0.00,,,0.00,VWS V14.01,2013-06-13 09:43:00,
2013-06-13 05:48:00,49.3,48.5,29.84,NNW,345,0.0,0.0,97,0.00,,,0.00,VWS V14.01,2013-06-13 09:48:00,
2013-06-13 05:53:00,49.5,48.7,29.84,NNW,345,0.0,0.0,97,0.00,,,0.00,VWS V14.01,2013-06-13 09:53:00,
2013-06-13 05:58:00,49.5,48.7,29.84,NNW,345,0.0,0.0,97,0.00,,,0.00,VWS V14.01,2013-06-13 09:58:00,
2013-06-13 06:03:00,49.5,48.7,29.84,NNW,345,0.0,0.0,97,0.00,,,0.00,VWS V14.01,2013-06-13 10:03:00,
2013-06-13 06:08:00,49.5,48.7,29.84,NNW,345,0.0,0.0,97,0.00,,,0.00,VWS V14.01,2013-06-13 10:08:00,
2013-06-13 06:13:00,49.8,49.0,29.84,NNW,345,0.0,0.0,97,0.00,,,0.00,VWS V14.01,2013-06-13 10:13:00,
2013-06-13 06:18:00,50.0,49.2,29.84,NNW,345,0.0,0.0,97,0.00,,,0.00,VWS V14.01,2013-06-13 10:18:00,
2013-06-13 06:24:00,50.4,49.5,29.84,NNW,345,0.0,0.0,97,0.00,,,0.00,VWS V14.01,2013-06-13 10:24:00,
2013-06-13 06:29:00,50.7,49.9,29.84,NNW,345,0.0,0.0,97,0.00,,,0.00,VWS V14.01,2013-06-13 10:29:00,
2013-06-13 06:34:00,50.7,49.9,29.84,NNW,345,0.0,0.0,97,0.00,,,0.00,VWS V14.01,2013-06-13 10:34:00,
2013-06-13 06:39:00,50.7,49.9,29.84,NNW,345,0.0,0.0,97,0.00,,,0.00,VWS V14.01,2013-06-13 10:39:00,
2013-06-13 06:44:00,50.7,49.9,29.84,NNW,345,0.0,0.0,97,0.00,,,0.00,VWS V14.01,2013-06-13 10:44:00,
2013-06-13 06:49:00,50.9,50.1,29.84,NNW,345,0.0,0.0,97,0.00,,,0.00,VWS V14.01,2013-06-13 10:49:00,
2013-06-13 06:54:00,50.9,50.1,29.84,NNW,345,0.0,0.0,97,0.00,,,0.00,VWS V14.01,2013-06-13 10:54:00,
2013-06-13 06:59:00,51.3,50.4,29.84,NNW,345,0.0,0.0,97,0.00,,,0.00,VWS V14.01,2013-06-13 10:59:00,
2013-06-13 07:04:00,51.3,50.4,29.84,NNW,345,0.0,0.0,97,0.00,,,0.00,VWS V14.01,2013-06-13 11:04:00,
2013-06-13 07:09:00,51.6,51.1,29.84,NNW,345,0.0,0.0,98,0.00,,,0.00,VWS V14.01,2013-06-13 11:09:00,
2013-06-13 07:14:00,51.8,51.0,29.84,NNW,345,0.0,0.0,97,0.00,,,0.00,VWS V14.01,2013-06-13 11:14:00,
2013-06-13 07:19:00,52.2,51.3,29.84,NNW,345,0.0,0.0,97,0.00,,,0.00,VWS V14.01,2013-06-13 11:19:00,
2013-06-13 07:24:00,52.5,51.7,29.81,NNW,345,0.0,0.0,97,0.00,,,0.00,VWS V14.01,2013-06-13 11:24:00,
2013-06-13 07:29:00,52.7,52.2,29.81,NNW,345,0.0,0.0,98,0.00,,,0.00,VWS V14.01,2013-06-13 11:29:00,
2013-06-13 07:34:00,53.1,52.5,29.81,NNW,345,0.0,0.0,98,0.00,,,0.00,VWS V14.01,2013-06-13 11:34:00,
2013-06-13 07:39:00,53.2,52.7,29.81,NNW,345,0.0,0.0,98,0.00,,,0.00,VWS V14.01,2013-06-13 11:39:00,
2013-06-13 07:44:00,53.4,52.9,29.81,NNW,345,0.0,0.0,98,0.00,,,0.00,VWS V14.01,2013-06-13 11:44:00,
2013-06-13 07:49:00,53.8,53.0,29.81,NNW,345,0.0,0.0,97,0.00,,,0.00,VWS V14.01,2013-06-13 11:49:00,
2013-06-13 07:54:00,54.1,53.3,29.81,NNW,345,0.0,0.0,97,0.00,,,0.00,VWS V14.01,2013-06-13 11:54:00,
2013-06-13 07:59:00,54.7,54.1,29.81,NNW,345,0.0,0.0,98,0.00,,,0.00,VWS V14.01,2013-06-13 11:59:00,
2013-06-13 08:04:00,55.0,54.5,29.81,NNW,345,0.0,0.0,98,0.00,,,0.00,VWS V14.01,2013-06-13 12:04:00,
2013-06-13 08:09:00,55.4,54.6,29.81,NNW,345,0.0,0.0,97,0.00,,,0.00,VWS V14.01,2013-06-13 12:09:00,
2013-06-13 08:14:00,55.6,54.8,29.81,NNW,345,0.0,0.0,97,0.00,,,0.00,VWS V14.01,2013-06-13 12:14:00,
2013-06-13 08:19:00,55.6,54.8,29.81,NNW,345,0.0,0.0,97,0.00,,,0.00,VWS V14.01,2013-06-13 12:19:00,
2013-06-13 08:24:00,55.6,54.8,29.81,NNW,345,0.0,0.0,97,0.00,,,0.00,VWS V14.01,2013-06-13 12:24:00,
2013-06-13 08:29:00,55.6,54.8,29.81,NNW,345,0.0,0.0,97,0.00,,,0.00,VWS V14.01,2013-06-13 12:29:00,
2013-06-13 08:34:00,55.8,54.9,29.81,NNW,345,0.0,0.0,97,0.00,,,0.00,VWS V14.01,2013-06-13 12:34:00,
2013-06-13 08:39:00,55.9,55.1,29.81,NNW,345,0.0,3.6,97,0.00,,,0.00,VWS V14.01,2013-06-13 12:39:00,
2013-06-13 08:44:00,56.3,55.8,29.81,NNW,345,0.0,0.0,98,0.00,,,0.00,VWS V14.01,2013-06-13 12:44:00,
2013-06-13 08:49:00,56.7,56.1,29.81,NNW,345,0.0,0.0,98,0.00,,,0.00,VWS V14.01,2013-06-13 12:49:00,
2013-06-13 08:55:00,56.8,56.3,29.81,NNW,345,0.0,0.0,98,0.00,,,0.00,VWS V14.01,2013-06-13 12:55:00,
2013-06-13 09:00:00,57.0,56.5,29.81,North,357,0.0,0.0,98,0.00,,,0.00,VWS V14.01,2013-06-13 13:00:00,
2013-06-13 09:05:00,57.2,56.4,29.81,NNE,13,0.0,0.0,97,0.00,,,0.00,VWS V14.01,2013-06-13 13:05:00,
2013-06-13 09:10:00,57.2,56.4,29.81,North,357,0.0,5.4,97,0.00,,,0.00,VWS V14.01,2013-06-13 13:10:00,
2013-06-13 09:15:00,57.2,56.4,29.81,NNE,19,2.2,6.3,97,0.00,,SCT001,0.00,VWS V14.01,2013-06-13 13:15:00,
2013-06-13 09:20:00,57.2,56.4,29.81,NNW,335,0.0,6.3,97,0.00,,SCT001,0.00,VWS V14.01,2013-06-13 13:20:00,
2013-06-13 09:25:00,57.2,56.1,29.81,NNW,348,2.7,5.8,96,0.00,,SCT001,0.00,VWS V14.01,2013-06-13 13:25:00,
2013-06-13 09:30:00,57.2,56.1,29.81,NNE,25,4.0,6.3,96,0.00,,SCT001,0.00,VWS V14.01,2013-06-13 13:30:00,
2013-06-13 09:35:00,57.2,55.8,29.81,North,353,3.6,4.0,95,0.00,,SCT001,0.00,VWS V14.01,2013-06-13 13:35:00,
2013-06-13 09:40:00,57.2,55.8,29.81,NNE,16,0.0,0.0,95,0.00,,SCT001,0.00,VWS V14.01,2013-06-13 13:40:00,
2013-06-13 09:45:00,57.4,56.0,29.81,NNW,342,0.0,0.0,95,0.00,,CLR,0.00,VWS V14.01,2013-06-13 13:45:00,
2013-06-13 09:50:00,57.6,55.8,29.81,NNW,342,0.0,0.0,94,0.00,,CLR,0.00,VWS V14.01,2013-06-13 13:50:00,
2013-06-13 09:55:00,57.6,55.6,29.81,North,10,0.0,5.4,93,0.00,,CLR,0.00,VWS V14.01,2013-06-13 13:55:00,
2013-06-13 10:00:00,57.7,55.7,29.81,North,10,0.0,0.0,93,0.00,,CLR,0.00,VWS V14.01,2013-06-13 14:00:00,
2013-06-13 10:05:00,57.9,55.9,29.81,NNE,16,0.0,0.0,93,0.00,,CLR,0.00,VWS V14.01,2013-06-13 14:05:00,
2013-06-13 10:10:00,58.1,56.1,29.81,North,350,0.0,0.0,93,0.00,,CLR,0.00,VWS V14.01,2013-06-13 14:10:00,
2013-06-13 10:15:00,58.5,56.2,29.81,NNW,330,6.3,6.3,92,0.00,,CLR,0.00,VWS V14.01,2013-06-13 14:15:00,
2013-06-13 10:20:00,58.5,55.2,29.81,NNE,17,3.1,4.9,89,0.00,,CLR,0.00,VWS V14.01,2013-06-13 14:20:00,
2013-06-13 10:25:00,58.5,54.3,29.78,NNE,27,3.6,7.6,86,0.00,,CLR,0.00,VWS V14.01,2013-06-13 14:25:00,
2013-06-13 10:30:00,58.8,54.7,29.78,North,357,0.0,2.2,86,0.00,,CLR,0.00,VWS V14.01,2013-06-13 14:30:00,
2013-06-13 10:35:00,59.0,54.5,29.78,North,1,4.0,7.2,85,0.00,,CLR,0.00,VWS V14.01,2013-06-13 14:35:00,
2013-06-13 10:40:00,59.0,53.8,29.78,NNW,329,3.1,3.1,83,0.00,,CLR,0.00,VWS V14.01,2013-06-13 14:40:00,
2013-06-13 10:45:00,59.0,53.5,29.78,NNE,14,6.3,8.3,82,0.00,,CLR,0.00,VWS V14.01,2013-06-13 14:45:00,
2013-06-13 10:50:00,59.0,52.8,29.78,North,3,0.0,4.0,80,0.00,,CLR,0.00,VWS V14.01,2013-06-13 14:50:00,
2013-06-13 10:55:00,59.2,52.3,29.78,NNW,337,4.0,8.7,78,0.00,,CLR,0.00,VWS V14.01,2013-06-13 14:55:00,
2013-06-13 11:00:00,59.2,50.9,29.78,NNE,18,3.1,3.6,74,0.00,,CLR,0.00,VWS V14.01,2013-06-13 15:00:00,
2013-06-13 11:05:00,59.4,50.7,29.78,NNW,331,3.6,6.3,73,0.00,,CLR,0.00,VWS V14.01,2013-06-13 15:05:00,
2013-06-13 11:10:00,59.4,51.1,29.78,North,6,5.8,5.8,74,0.00,,CLR,0.00,VWS V14.01,2013-06-13 15:10:00,
2013-06-13 11:15:00,59.4,50.7,29.78,WNW,284,0.0,5.8,73,0.00,,CLR,0.00,VWS V14.01,2013-06-13 15:15:00,
2013-06-13 11:20:00,59.4,51.1,29.78,NNE,14,0.0,0.0,74,0.00,,CLR,0.00,VWS V14.01,2013-06-13 15:20:00,
2013-06-13 11:25:00,59.5,51.3,29.78,NNE,20,0.0,5.8,74,0.00,,CLR,0.00,VWS V14.01,2013-06-13 15:25:00,
2013-06-13 11:31:00,59.7,51.8,29.78,ENE,75,0.0,0.0,75,0.00,,CLR,0.00,VWS V14.01,2013-06-13 15:31:00,
2013-06-13 11:36:00,59.7,51.8,29.78,NE,38,0.0,4.0,75,0.00,,CLR,0.00,VWS V14.01,2013-06-13 15:36:00,
2013-06-13 11:41:00,59.7,51.4,29.78,NW,319,0.0,0.0,74,0.00,,BKN030,0.00,VWS V14.01,2013-06-13 15:41:00,
2013-06-13 11:46:00,59.9,51.6,29.78,NNE,31,0.0,0.0,74,0.00,,BKN030,0.00,VWS V14.01,2013-06-13 15:46:00,
2013-06-13 11:51:00,59.7,51.4,29.78,NNE,20,0.0,0.0,74,0.00,,BKN030,0.00,VWS V14.01,2013-06-13 15:51:00,
2013-06-13 11:56:00,59.7,51.4,29.78,WNW,296,0.0,4.9,74,0.00,,BKN030,0.00,VWS V14.01,2013-06-13 15:56:00,
2013-06-13 12:01:00,59.9,51.2,29.78,South,174,3.6,5.8,73,0.00,,BKN030,0.00,VWS V14.01,2013-06-13 16:01:00,
2013-06-13 12:06:00,59.9,51.2,29.78,South,171,0.0,5.8,73,0.00,,BKN030,0.00,VWS V14.01,2013-06-13 16:06:00,
2013-06-13 12:11:00,60.1,51.4,29.78,SE,129,0.0,0.0,73,0.00,,BKN030,0.00,VWS V14.01,2013-06-13 16:11:00,
2013-06-13 12:16:00,59.9,50.9,29.78,NNE,20,3.6,4.0,72,0.00,,BKN030,0.00,VWS V14.01,2013-06-13 16:16:00,
2013-06-13 12:21:00,59.9,50.9,29.78,South,185,4.0,4.9,72,0.00,,BKN030,0.00,VWS V14.01,2013-06-13 16:21:00,
2013-06-13 12:26:00,59.9,50.9,29.78,SSE,163,0.0,5.8,72,0.00,,BKN030,0.00,VWS V14.01,2013-06-13 16:26:00,
2013-06-13 12:31:00,59.9,50.9,29.78,SSE,147,0.0,0.0,72,0.00,,BKN030,0.00,VWS V14.01,2013-06-13 16:31:00,
2013-06-13 12:36:00,60.1,51.0,29.78,South,191,0.0,5.8,72,0.00,,BKN030,0.00,VWS V14.01,2013-06-13 16:36:00,
2013-06-13 12:41:00,60.3,51.2,29.78,South,188,0.0,0.0,72,0.00,,BKN030,0.00,VWS V14.01,2013-06-13 16:41:00,
2013-06-13 12:46:00,60.4,51.4,29.78,SW,215,2.2,3.1,72,0.00,,BKN030,0.00,VWS V14.01,2013-06-13 16:46:00,
2013-06-13 12:51:00,60.4,51.0,29.78,South,187,3.6,5.8,71,0.00,,BKN030,0.00,VWS V14.01,2013-06-13 16:51:00,
2013-06-13 12:56:00,60.4,50.6,29.78,NW,322,3.1,5.8,70,0.00,,BKN030,0.00,VWS V14.01,2013-06-13 16:56:00,
2013-06-13 13:01:00,60.4,50.6,29.78,North,9,0.0,0.0,70,0.00,,BKN030,0.00,VWS V14.01,2013-06-13 17:01:00,
2013-06-13 13:06:00,60.6,50.8,29.78,NW,308,2.2,6.3,70,0.00,,BKN030,0.00,VWS V14.01,2013-06-13 17:06:00,
2013-06-13 13:11:00,60.6,50.8,29.75,NNW,340,3.1,4.9,70,0.00,,BKN030,0.00,VWS V14.01,2013-06-13 17:11:00,
2013-06-13 13:16:00,60.4,49.8,29.75,South,170,2.7,8.7,68,0.00,,BKN030,0.00,VWS V14.01,2013-06-13 17:16:00,
2013-06-13 13:21:00,60.4,49.8,29.75,NNE,14,4.0,6.3,68,0.00,,BKN030,0.00,VWS V14.01,2013-06-13 17:21:00,
2013-06-13 13:26:00,60.4,49.8,29.75,SSE,151,0.0,8.1,68,0.00,,BKN030,0.00,VWS V14.01,2013-06-13 17:26:00,
2013-06-13 13:31:00,60.6,50.4,29.75,SW,220,0.0,0.0,69,0.00,,BKN030,0.00,VWS V14.01,2013-06-13 17:31:00,
2013-06-13 13:36:00,60.6,50.0,29.75,North,350,0.0,5.4,68,0.00,,BKN030,0.00,VWS V14.01,2013-06-13 17:36:00,
2013-06-13 13:42:00,60.6,50.0,29.75,NNW,330,2.7,5.4,68,0.00,,BKN030,0.00,VWS V14.01,2013-06-13 17:42:00,
2013-06-13 13:47:00,60.4,49.8,29.75,NNE,31,3.6,5.8,68,0.00,,BKN030,0.00,VWS V14.01,2013-06-13 17:47:00,
2013-06-13 13:52:00,60.4,50.2,29.75,NNW,335,0.0,4.9,69,0.00,,BKN030,0.00,VWS V14.01,2013-06-13 17:52:00,
2013-06-13 13:57:00,60.3,50.1,29.75,North,353,0.0,6.3,69,0.00,,BKN030,0.00,VWS V14.01,2013-06-13 17:57:00,
2013-06-13 14:02:00,60.3,50.5,29.75,North,353,2.7,4.9,70,0.00,,FEW110,0.00,VWS V14.01,2013-06-13 18:02:00,
2013-06-13 14:07:00,60.3,50.8,29.75,NNE,20,4.9,5.4,71,0.00,,FEW110,0.00,VWS V14.01,2013-06-13 18:07:00,
2013-06-13 14:12:00,60.3,51.2,29.75,NNW,346,7.2,8.3,72,0.00,,FEW110,0.00,VWS V14.01,2013-06-13 18:12:00,
2013-06-13 14:17:00,60.3,50.8,29.75,NNW,332,0.0,8.3,71,0.00,,FEW110,0.00,VWS V14.01,2013-06-13 18:17:00,
2013-06-13 14:22:00,60.3,51.2,29.75,North,353,3.6,5.4,72,0.00,,FEW110,0.00,VWS V14.01,2013-06-13 18:22:00,
2013-06-13 14:27:00,60.1,51.0,29.75,NNE,26,0.0,5.8,72,0.00,,FEW110,0.00,VWS V14.01,2013-06-13 18:27:00,
2013-06-13 14:32:00,59.9,51.2,29.75,North,357,6.3,6.3,73,0.00,,FEW110,0.00,VWS V14.01,2013-06-13 18:32:00,
2013-06-13 14:37:00,59.7,51.1,29.75,North,3,0.0,8.7,73,0.00,,FEW110,0.00,VWS V14.01,2013-06-13 18:37:00,
2013-06-13 14:42:00,59.5,50.9,29.75,NW,326,2.7,8.1,73,0.00,,FEW110,0.00,VWS V14.01,2013-06-13 18:42:00,
2013-06-13 14:47:00,59.5,51.3,29.75,NW,307,5.8,8.1,74,0.00,,FEW110,0.00,VWS V14.01,2013-06-13 18:47:00,
2013-06-13 14:52:00,59.4,51.1,29.75,SSW,205,3.6,3.6,74,0.00,,BKN120,0.00,VWS V14.01,2013-06-13 18:52:00,
2013-06-13 14:57:00,59.4,51.1,29.75,NNW,336,3.1,13.2,74,0.00,,BKN120,0.00,VWS V14.01,2013-06-13 18:57:00,
2013-06-13 15:02:00,59.2,50.9,29.75,NNE,12,0.0,6.3,74,0.00,,BKN120,0.00,VWS V14.01,2013-06-13 19:02:00,
2013-06-13 15:07:00,59.2,51.3,29.75,NNW,337,5.8,6.3,75,0.00,,BKN120,0.00,VWS V14.01,2013-06-13 19:07:00,
2013-06-13 15:12:00,59.4,51.8,29.75,NNE,30,6.3,6.3,76,0.00,,BKN120,0.00,VWS V14.01,2013-06-13 19:12:00,
2013-06-13 15:17:00,59.2,51.3,29.75,SSE,161,2.7,8.3,75,0.00,,BKN120,0.00,VWS V14.01,2013-06-13 19:17:00,
2013-06-13 15:22:00,59.2,51.3,29.75,NNW,343,3.1,6.3,75,0.00,,BKN120,0.00,VWS V14.01,2013-06-13 19:22:00,
2013-06-13 15:27:00,59.0,51.5,29.75,North,357,2.2,8.1,76,0.00,,BKN120,0.00,VWS V14.01,2013-06-13 19:27:00,
2013-06-13 15:32:00,59.0,51.5,29.75,NE,36,5.8,6.7,76,0.00,,BKN120,0.00,VWS V14.01,2013-06-13 19:32:00,
2013-06-13 15:37:00,59.0,51.5,29.75,North,9,5.8,6.7,76,0.00,,BKN120,0.00,VWS V14.01,2013-06-13 19:37:00,
2013-06-13 15:42:00,58.8,51.3,29.75,NE,46,3.1,5.4,76,0.00,,BKN120,0.00,VWS V14.01,2013-06-13 19:42:00,
2013-06-13 15:47:00,58.8,52.0,29.75,WNW,293,5.8,8.1,78,0.00,,BKN120,0.00,VWS V14.01,2013-06-13 19:47:00,
2013-06-13 15:52:00,58.6,51.8,29.75,North,8,8.1,8.1,78,0.00,,FEW034,0.00,VWS V14.01,2013-06-13 19:52:00,
2013-06-13 15:57:00,58.3,51.8,29.75,North,353,0.0,8.1,79,0.00,,FEW034,0.00,VWS V14.01,2013-06-13 19:57:00,
2013-06-13 16:02:00,58.1,51.6,29.75,NNW,330,0.0,0.0,79,0.00,,FEW034,0.00,VWS V14.01,2013-06-13 20:02:00,
2013-06-13 16:08:00,57.9,51.5,29.75,North,353,2.7,7.6,79,0.00,,FEW034,0.00,VWS V14.01,2013-06-13 20:08:00,
2013-06-13 16:13:00,57.7,51.3,29.75,NNW,328,3.6,3.6,79,0.00,,FEW034,0.00,VWS V14.01,2013-06-13 20:13:00,
2013-06-13 16:18:00,57.6,51.5,29.75,NNE,14,5.4,6.3,80,0.00,,FEW034,0.00,VWS V14.01,2013-06-13 20:18:00,
2013-06-13 16:23:00,57.6,51.5,29.75,WSW,253,0.0,0.0,80,0.00,,FEW034,0.00,VWS V14.01,2013-06-13 20:23:00,
2013-06-13 16:28:00,57.4,51.3,29.75,North,9,0.0,0.0,80,0.00,,FEW034,0.00,VWS V14.01,2013-06-13 20:28:00,
2013-06-13 16:33:00,57.2,51.4,29.75,NE,54,0.0,4.9,81,0.00,,FEW034,0.00,VWS V14.01,2013-06-13 20:33:00,
2013-06-13 16:38:00,56.8,51.1,29.75,NNW,327,4.0,5.8,81,0.00,,FEW034,0.00,VWS V14.01,2013-06-13 20:38:00,
2013-06-13 16:43:00,56.7,50.9,29.78,SW,224,0.0,0.0,81,0.00,,FEW034,0.00,VWS V14.01,2013-06-13 20:43:00,
2013-06-13 16:48:00,56.3,50.9,29.78,NNE,33,4.9,4.9,82,0.00,,FEW034,0.00,VWS V14.01,2013-06-13 20:48:00,
2013-06-13 16:53:00,56.1,50.7,29.78,NW,326,0.0,3.6,82,0.00,,OVC100,0.00,VWS V14.01,2013-06-13 20:53:00,
2013-06-13 16:58:00,56.1,51.0,29.78,WNW,302,0.0,3.6,83,0.00,,OVC100,0.00,VWS V14.01,2013-06-13 20:58:00,
2013-06-13 17:03:00,55.9,50.9,29.78,NNE,20,0.0,0.0,83,0.00,,OVC100,0.00,VWS V14.01,2013-06-13 21:03:00,
2013-06-13 17:08:00,55.9,51.2,29.78,SW,232,0.0,0.0,84,0.04,,OVC100,0.04,VWS V14.01,2013-06-13 21:08:00,
2013-06-13 17:13:00,55.8,51.0,29.78,NNW,330,0.0,0.0,84,0.04,,OVC100,0.04,VWS V14.01,2013-06-13 21:13:00,
2013-06-13 17:18:00,55.8,51.0,29.78,NNE,22,0.0,0.0,84,0.04,,OVC100,0.04,VWS V14.01,2013-06-13 21:18:00,
2013-06-13 17:23:00,55.6,51.2,29.78,NE,51,4.0,4.0,85,0.04,,OVC100,0.04,VWS V14.01,2013-06-13 21:23:00,
2013-06-13 17:28:00,55.4,51.0,29.78,NW,315,0.0,4.0,85,0.04,,OVC100,0.04,VWS V14.01,2013-06-13 21:28:00,
2013-06-13 17:33:00,55.2,50.8,29.78,North,8,0.0,0.0,85,0.04,,OVC100,0.04,VWS V14.01,2013-06-13 21:33:00,
2013-06-13 17:38:00,55.2,50.8,29.78,NNE,24,3.1,3.1,85,0.04,,OVC100,0.04,VWS V14.01,2013-06-13 21:38:00,
2013-06-13 17:43:00,55.2,50.8,29.78,NNE,32,2.2,3.1,85,0.04,,OVC100,0.04,VWS V14.01,2013-06-13 21:43:00,
2013-06-13 17:48:00,54.7,50.0,29.78,NW,317,0.0,4.0,84,0.04,,OVC100,0.04,VWS V14.01,2013-06-13 21:48:00,
2013-06-13 17:53:00,54.5,49.8,29.78,SW,221,0.0,0.0,84,0.04,,BKN090,0.04,VWS V14.01,2013-06-13 21:53:00,
2013-06-13 17:58:00,54.5,50.1,29.78,NNE,20,0.0,0.0,85,0.04,,BKN090,0.04,VWS V14.01,2013-06-13 21:58:00,
2013-06-13 18:03:00,54.5,50.1,29.78,North,0,0.0,0.0,85,0.04,,BKN090,0.04,VWS V14.01,2013-06-13 22:03:00,
2013-06-13 18:08:00,54.5,50.1,29.78,NNE,14,4.9,5.4,85,0.04,,BKN090,0.04,VWS V14.01,2013-06-13 22:08:00,
2013-06-13 18:13:00,54.5,50.4,29.78,NNW,329,5.8,5.8,86,0.00,,BKN090,0.04,VWS V14.01,2013-06-13 22:13:00,
2013-06-13 18:18:00,54.5,50.4,29.78,NNW,332,0.0,5.8,86,0.00,,BKN090,0.04,VWS V14.01,2013-06-13 22:18:00,
2013-06-13 18:23:00,54.5,50.4,29.78,NE,51,0.0,0.0,86,0.00,,BKN090,0.04,VWS V14.01,2013-06-13 22:23:00,
2013-06-13 18:28:00,54.5,50.4,29.78,NNE,24,0.0,0.0,86,0.00,,BKN090,0.04,VWS V14.01,2013-06-13 22:28:00,
2013-06-13 18:33:00,54.5,50.4,29.78,NNE,17,3.6,3.6,86,0.00,,BKN090,0.04,VWS V14.01,2013-06-13 22:33:00,
2013-06-13 18:39:00,54.5,50.4,29.78,NNE,14,0.0,3.6,86,0.04,,BKN090,0.08,VWS V14.01,2013-06-13 22:39:00,
2013-06-13 18:44:00,54.3,50.5,29.81,NW,305,0.0,0.0,87,0.04,,BKN090,0.08,VWS V14.01,2013-06-13 22:44:00,
2013-06-13 18:49:00,54.3,50.5,29.81,NW,305,0.0,0.0,87,0.04,,BKN090,0.08,VWS V14.01,2013-06-13 22:49:00,
2013-06-13 18:54:00,54.0,50.2,29.81,NNE,13,3.1,3.1,87,0.04,,OVC095,0.08,VWS V14.01,2013-06-13 22:54:00,
2013-06-13 18:59:00,54.0,50.2,29.81,NW,308,0.0,3.1,87,0.04,,OVC095,0.08,VWS V14.01,2013-06-13 22:59:00,
2013-06-13 19:04:00,53.8,50.0,29.81,North,2,0.0,0.0,87,0.04,,OVC095,0.08,VWS V14.01,2013-06-13 23:04:00,
2013-06-13 19:09:00,53.8,50.0,29.81,NE,34,2.2,3.6,87,0.04,,OVC095,0.08,VWS V14.01,2013-06-13 23:09:00,
2013-06-13 19:14:00,53.6,49.8,29.81,NW,316,0.0,2.2,87,0.04,,OVC095,0.08,VWS V14.01,2013-06-13 23:14:00,
2013-06-13 19:19:00,53.6,49.8,29.81,North,357,0.0,2.2,87,0.04,,OVC095,0.08,VWS V14.01,2013-06-13 23:19:00,
2013-06-13 19:24:00,53.6,50.1,29.81,North,357,0.0,0.0,88,0.04,,OVC095,0.08,VWS V14.01,2013-06-13 23:24:00,
2013-06-13 19:29:00,53.6,50.1,29.81,NNE,23,4.0,4.0,88,0.04,,OVC095,0.08,VWS V14.01,2013-06-13 23:29:00,
2013-06-13 19:34:00,53.4,50.0,29.81,NNE,23,4.0,4.0,88,0.04,,OVC095,0.08,VWS V14.01,2013-06-13 23:34:00,
2013-06-13 19:39:00,53.6,50.1,29.81,North,0,0.0,4.0,88,0.04,,OVC095,0.08,VWS V14.01,2013-06-13 23:39:00,
2013-06-13 19:44:00,53.6,50.1,29.81,North,353,0.0,0.0,88,0.00,,OVC095,0.08,VWS V14.01,2013-06-13 23:44:00,
2013-06-13 19:49:00,53.4,50.0,29.81,NW,324,5.4,5.4,88,0.00,,OVC095,0.08,VWS V14.01,2013-06-13 23:49:00,
2013-06-13 19:54:00,53.2,49.8,29.81,North,8,2.7,5.8,88,0.00,,SCT120,0.08,VWS V14.01,2013-06-13 23:54:00,
2013-06-13 19:59:00,53.2,49.8,29.81,North,3,2.2,5.8,88,0.00,,SCT120,0.08,VWS V14.01,2013-06-13 23:59:00,
2013-06-13 20:04:00,53.2,50.1,29.81,NNE,25,4.0,4.0,89,0.00,,SCT120,0.08,VWS V14.01,2013-06-14 00:04:00,
2013-06-13 20:09:00,53.1,49.9,29.81,North,10,6.3,6.3,89,0.00,,SCT120,0.08,VWS V14.01,2013-06-14 00:09:00,
2013-06-13 20:14:00,53.1,49.9,29.81,NNE,26,3.6,6.3,89,0.00,,SCT120,0.08,VWS V14.01,2013-06-14 00:14:00,
2013-06-13 20:19:00,53.1,49.9,29.81,NNE,15,5.4,6.3,89,0.00,,SCT120,0.08,VWS V14.01,2013-06-14 00:19:00,
2013-06-13 20:24:00,52.9,50.0,29.81,North,0,7.6,7.6,90,0.00,,CLR,0.08,VWS V14.01,2013-06-14 00:24:00,
2013-06-13 20:29:00,52.9,50.3,29.81,NNE,24,0.0,7.6,91,0.00,,CLR,0.08,VWS V14.01,2013-06-14 00:29:00,
2013-06-13 20:34:00,52.9,50.3,29.81,NNW,339,0.0,3.6,91,0.00,,CLR,0.08,VWS V14.01,2013-06-14 00:34:00,
2013-06-13 20:39:00,52.7,50.2,29.81,North,357,0.0,3.6,91,0.00,,CLR,0.08,VWS V14.01,2013-06-14 00:39:00,
2013-06-13 20:44:00,52.7,50.2,29.81,North,353,0.0,3.6,91,0.00,,CLR,0.08,VWS V14.01,2013-06-14 00:44:00,
2013-06-13 20:49:00,52.7,50.2,29.81,North,0,0.0,3.6,91,0.00,,CLR,0.08,VWS V14.01,2013-06-14 00:49:00,
2013-06-13 20:54:00,52.7,50.2,29.81,North,0,0.0,0.0,91,0.00,,CLR,0.08,VWS V14.01,2013-06-14 00:54:00,
2013-06-13 20:59:00,52.7,50.2,29.81,North,0,0.0,0.0,91,0.00,,CLR,0.08,VWS V14.01,2013-06-14 00:59:00,
2013-06-13 21:04:00,52.2,49.6,29.81,North,0,0.0,0.0,91,0.00,,CLR,0.08,VWS V14.01,2013-06-14 01:04:00,
2013-06-13 21:09:00,52.2,49.6,29.81,North,0,0.0,0.0,91,0.00,,CLR,0.08,VWS V14.01,2013-06-14 01:09:00,
2013-06-13 21:14:00,51.8,49.3,29.81,North,0,0.0,0.0,91,0.00,,CLR,0.08,VWS V14.01,2013-06-14 01:14:00,
2013-06-13 21:19:00,51.8,49.3,29.81,North,0,0.0,0.0,91,0.00,,CLR,0.08,VWS V14.01,2013-06-14 01:19:00,
2013-06-13 21:24:00,51.4,48.9,29.81,North,0,0.0,0.0,91,0.00,,CLR,0.08,VWS V14.01,2013-06-14 01:24:00,
2013-06-13 21:30:00,51.3,48.7,29.81,North,0,0.0,0.0,91,0.00,,CLR,0.08,VWS V14.01,2013-06-14 01:30:00,
2013-06-13 21:35:00,51.3,48.7,29.81,North,0,0.0,0.0,91,0.00,,CLR,0.08,VWS V14.01,2013-06-14 01:35:00,
2013-06-13 21:40:00,51.1,48.8,29.81,North,0,0.0,0.0,92,0.00,,CLR,0.08,VWS V14.01,2013-06-14 01:40:00,
2013-06-13 21:45:00,50.9,48.7,29.81,North,0,0.0,0.0,92,0.00,,CLR,0.08,VWS V14.01,2013-06-14 01:45:00,
2013-06-13 21:50:00,50.9,48.7,29.81,North,0,0.0,0.0,92,0.00,,CLR,0.08,VWS V14.01,2013-06-14 01:50:00,
2013-06-13 21:55:00,50.9,48.7,29.81,North,0,0.0,0.0,92,0.00,,BKN075,0.08,VWS V14.01,2013-06-14 01:55:00,
2013-06-13 22:00:00,50.9,48.7,29.84,North,0,0.0,0.0,92,0.00,,BKN075,0.08,VWS V14.01,2013-06-14 02:00:00,
2013-06-13 22:05:00,50.9,48.7,29.84,North,0,0.0,0.0,92,0.00,,BKN075,0.08,VWS V14.01,2013-06-14 02:05:00,
2013-06-13 22:10:00,50.9,48.7,29.84,North,0,0.0,0.0,92,0.00,,BKN075,0.08,VWS V14.01,2013-06-14 02:10:00,
2013-06-13 22:15:00,50.9,48.7,29.84,North,0,0.0,0.0,92,0.00,,BKN075,0.08,VWS V14.01,2013-06-14 02:15:00,
2013-06-13 22:20:00,50.9,48.7,29.84,North,0,0.0,0.0,92,0.00,,BKN075,0.08,VWS V14.01,2013-06-14 02:20:00,
2013-06-13 22:25:00,50.2,48.0,29.84,North,0,0.0,0.0,92,0.00,,BKN075,0.08,VWS V14.01,2013-06-14 02:25:00,
2013-06-13 22:30:00,50.2,48.0,29.84,North,0,0.0,0.0,92,0.00,,BKN075,0.08,VWS V14.01,2013-06-14 02:30:00,
2013-06-13 22:35:00,50.2,48.0,29.84,North,357,0.0,0.0,92,0.00,,BKN075,0.08,VWS V14.01,2013-06-14 02:35:00,
2013-06-13 22:40:00,50.2,48.2,29.84,North,357,0.0,0.0,93,0.00,,BKN075,0.08,VWS V14.01,2013-06-14 02:40:00,
2013-06-13 22:45:00,50.2,48.2,29.84,North,357,0.0,0.0,93,0.00,,BKN075,0.08,VWS V14.01,2013-06-14 02:45:00,
2013-06-13 22:50:00,50.2,48.2,29.84,North,357,0.0,0.0,93,0.00,,BKN075,0.08,VWS V14.01,2013-06-14 02:50:00,
2013-06-13 22:55:00,50.2,48.2,29.84,North,357,0.0,0.0,93,0.00,,BKN080,0.08,VWS V14.01,2013-06-14 02:55:00,
2013-06-13 23:00:00,50.2,48.5,29.84,North,357,0.0,0.0,94,0.00,,BKN080,0.08,VWS V14.01,2013-06-14 03:00:00,
2013-06-13 23:05:00,50.2,48.5,29.84,North,357,0.0,0.0,94,0.00,,BKN080,0.08,VWS V14.01,2013-06-14 03:05:00,
2013-06-13 23:10:00,50.2,48.5,29.84,North,357,0.0,0.0,94,0.00,,BKN080,0.08,VWS V14.01,2013-06-14 03:10:00,
2013-06-13 23:15:00,50.2,48.5,29.81,North,10,0.0,0.0,94,0.00,,BKN080,0.08,VWS V14.01,2013-06-14 03:15:00,
2013-06-13 23:20:00,50.2,48.5,29.81,North,10,0.0,0.0,94,0.00,,BKN080,0.08,VWS V14.01,2013-06-14 03:20:00,
2013-06-13 23:25:00,50.2,48.5,29.81,North,10,0.0,0.0,94,0.00,,BKN080,0.08,VWS V14.01,2013-06-14 03:25:00,
2013-06-13 23:30:00,50.2,48.5,29.81,North,7,0.0,0.0,94,0.00,,BKN080,0.08,VWS V14.01,2013-06-14 03:30:00,
2013-06-13 23:35:00,50.5,49.2,29.81,North,7,0.0,0.0,95,0.00,,BKN080,0.08,VWS V14.01,2013-06-14 03:35:00,
2013-06-13 23:40:00,50.5,49.2,29.81,North,7,0.0,0.0,95,0.00,,BKN080,0.08,VWS V14.01,2013-06-14 03:40:00,
2013-06-13 23:45:00,50.5,49.2,29.81,North,7,0.0,0.0,95,0.00,,BKN080,0.08,VWS V14.01,2013-06-14 03:45:00,
2013-06-13 23:50:00,50.5,49.2,29.81,North,7,0.0,0.0,95,0.00,,SCT075,0.08,VWS V14.01,2013-06-14 03:50:00,
2013-06-13 23:55:00,50.5,49.2,29.81,North,7,0.0,0.0,95,0.00,,SCT075,0.08,VWS V14.01,2013-06-14 03:55:00,